クラーク彗星

71P/Clark (2017)

English version
Home page
Updated on March 3, 2018

---------------------------------------------------------------------

・ プロフィール

・ 写真集

・ 軌道要素

Epoch 2017 June 16.0 TT = JDT 2457920.5
T 2017 June 30.21706 TT                                 MPCW
q   1.5861758            (2000.0)            P               Q
n   0.17741923     Peri.  208.92443     -0.03407587     +0.98937769
a   3.1366707      Node    59.44646     -0.88248199     +0.03658403
e   0.4943123      Incl.    9.44509     -0.46911019     -0.14068902
P   5.56
From 1062 observations 2011 Feb. 3-2017 Oct. 29, mean residual 0".8.
     Nongravitational parameters A1 = +0.61, A2 = -1.5781, A3 = +0.0376.

・ 星図

・ 光度変化

        m1 = 7.2 + 5 logΔ + 20.0 log r(t - 30)

---------------------------------------------------------------------

軌道要素はM.P.E.C. 2017-V13に掲載されたものです。
星図はステラナビゲータ Ver.8 (アストロアーツ) で作成したものです。
光度グラフはComet for Windowsで作成したものです。

---------------------------------------------------------------------

Copyright(C) Seiichi Yoshida (comet@aerith.net). All rights reserved.